Wind_Speed
23 23 23 24 25 25 25 22 20 20 21 21 22 22 22 21 20 19 18 18 18 18 18 17 17 17 16 16 16 16 16 15 15 15 14 14 13 13 12 12 11 11 11 10 10 10 10 9 9
23 24 24 25 26 25 24 22 22 22 23 24 24 24 24 23 22 21 20 20 19 19 19 19 19 19 19 19 18 18 18 17 17 16 16 16 15 14 14 13 12 12 12 11 11 11 11 11 10
24 25 25 26 26 25 24 22 22 23 25 26 26 25 26 25 24 23 22 22 21 21 21 21 21 21 21 20 20 20 20 20 19 18 18 17 17 16 16 15 14 14 13 13 12 12 11 11 11
26 27 27 27 26 25 24 24 24 25 26 27 27 27 27 28 27 25 24 23 23 23 23 23 23 23 23 22 22 22 22 22 21 21 19 18 18 18 18 17 16 15 15 14 14 13 13 12 11
28 29 29 28 27 26 26 26 27 27 28 28 29 29 29 29 29 28 26 25 26 26 25 25 25 25 25 24 24 24 24 23 23 22 21 20 19 19 19 18 17 17 16 15 15 15 14 14 13
30 30 30 29 28 27 27 27 28 29 29 30 30 30 30 31 31 30 29 28 28 28 28 27 28 27 27 26 26 25 25 24 24 24 22 21 20 20 19 19 18 18 17 17 16 16 15 15 14
31 31 30 30 30 29 29 29 29 30 30 30 31 31 31 32 32 31 31 31 30 30 30 29 29 29 29 28 27 26 26 26 25 25 24 23 22 21 21 20 19 18 18 17 17 16 16 15 14
31 32 31 31 30 30 30 30 30 30 31 31 32 32 32 32 32 32 33 33 33 32 31 31 31 31 30 30 29 28 27 27 27 26 25 24 23 22 22 21 20 19 18 18 18 17 16 15 15
33 33 31 30 31 30 30 31 31 31 31 31 32 32 33 33 33 33 33 33 33 32 32 32 32 32 31 31 30 29 28 28 27 27 26 25 24 23 23 22 21 21 20 19 18 18 17 16 16
33 33 31 31 31 31 31 32 31 31 32 32 32 33 32 32 32 32 32 32 32 31 31 31 32 32 32 32 31 31 30 29 29 28 27 26 26 24 24 24 23 22 22 21 20 19 18 18 17
34 33 32 32 32 32 32 32 32 32 32 33 32 33 33 32 32 32 31 31 31 31 31 31 31 31 32 32 33 32 31 30 30 29 29 28 27 26 26 25 25 24 23 22 21 20 19 19 19
35 33 33 33 34 34 33 32 32 32 32 33 33 33 33 33 32 31 30 31 31 31 31 31 31 32 32 32 33 33 32 32 31 30 30 28 28 27 27 27 26 25 24 23 22 22 21 20 21
35 34 34 34 35 35 34 33 32 31 31 32 32 32 32 32 31 31 30 31 31 31 31 31 31 32 32 32 32 33 32 32 31 31 30 29 29 29 28 29 28 27 26 24 24 23 23 22 21
36 35 35 35 35 35 35 34 33 30 31 32 32 32 32 31 30 29 30 30 31 31 31 31 31 32 32 32 32 32 32 32 32 31 30 30 29 29 29 28 29 28 27 26 25 25 24 24 23
36 36 35 34 35 35 36 34 32 30 32 32 32 32 31 31 30 30 30 30 30 31 31 31 31 31 31 32 33 32 32 33 32 32 32 31 29 29 29 28 29 29 28 27 27 27 25 25 24
37 37 35 33 35 36 36 34 31 31 32 32 32 32 32 31 30 30 30 30 30 30 30 30 31 31 30 31 32 33 33 34 33 33 33 31 30 30 30 29 29 29 29 29 28 27 27 26 26
38 37 35 34 35 36 37 34 30 32 32 32 31 31 32 32 30 30 30 30 30 31 31 31 31 31 30 31 32 33 34 34 34 33 33 32 31 31 31 30 30 30 30 29 29 28 27 27 27
38 37 36 35 34 36 37 34 31 33 33 33 33 32 32 32 30 30 30 31 31 31 32 32 31 31 31 31 32 32 33 34 34 34 33 32 32 32 32 31 31 32 32 32 31 29 28 28 27
39 38 37 35 35 36 36 35 33 33 33 33 33 32 32 31 31 31 31 31 31 31 31 32 32 33 32 31 31 32 33 34 35 35 34 33 33 33 33 33 32 31 31 31 31 30 30 30 30
40 39 37 36 35 36 36 35 33 33 33 32 32 32 32 31 31 31 31 31 32 31 31 31 32 33 33 32 31 32 33 34 35 35 34 33 33 33 34 34 33 32 32 31 31 31 32 32 32
40 39 37 37 36 37 37 36 33 32 32 32 32 33 32 31 31 29 29 31 31 32 32 31 32 33 33 33 33 32 33 34 36 35 33 32 32 33 33 33 33 33 32 32 32 32 32 32 33
40 38 38 38 38 37 37 38 33 31 31 32 32 32 32 31 32 30 29 30 30 31 31 31 32 32 32 32 32 32 34 34 35 34 33 33 34 34 34 34 34 34 33 33 32 32 33 33 33
41 39 39 39 39 39 38 40 34 31 31 31 32 32 32 32 32 31 30 30 31 31 31 31 32 32 31 31 32 33 34 34 35 35 34 34 34 35 34 34 35 35 34 34 34 34 34 35 35
41 40 40 40 41 43 40 40 37 32 30 30 32 32 33 33 32 31 30 30 30 30 31 31 32 32 31 32 31 32 33 35 35 34 34 33 34 34 35 35 35 35 35 35 36 36 36 36 36
41 41 40 40 42 43 40 42 39 33 31 31 32 32 33 33 33 32 31 30 30 30 30 30 32 33 32 33 33 33 34 35 36 35 34 34 33 34 35 36 36 36 36 36 37 38 38 38 38
41 41 42 42 43 43 43 43 38 35 33 32 32 32 32 33 33 33 31 31 30 30 30 30 32 33 33 34 35 34 34 35 36 36 35 35 35 35 36 37 37 37 37 37 38 39 40 40 40
41 42 41 41 42 43 44 42 39 37 35 33 32 33 33 33 33 33 32 32 31 31 30 30 31 33 34 35 36 37 36 36 37 36 35 36 36 37 37 37 38 38 38 38 38 40 41 42 42
40 39 39 41 41 42 42 41 38 37 36 34 33 33 33 33 33 33 33 33 32 31 30 30 32 32 33 34 36 37 38 37 37 36 36 37 38 38 38 39 39 39 40 39 40 41 42 43 43
38 39 39 40 41 41 41 39 37 36 36 35 33 33 32 32 33 34 34 34 33 33 32 31 32 33 32 33 35 37 37 37 37 37 37 37 38 39 40 40 40 41 42 42 42 43 43 44 45
37 38 39 39 39 39 40 39 36 35 35 34 34 33 33 32 33 34 34 34 34 34 33 33 33 33 33 34 35 36 37 37 38 38 37 38 38 39 40 41 41 42 42 43 44 44 45 45 46
Wind_Direction
250 250 249 249 250 252 254 254 252 251 253 252 252 252 253 253 253 253 254 254 254 252 249 248 246 244 243 242 241 242 244 245 245 245 243 241 240 240 239 239 236 234 235 235 232 234 234 234 233
250 251 251 251 252 254 256 256 254 253 254 253 253 252 252 252 253 253 253 253 253 253 251 248 246 245 244 243 242 242 244 245 245 244 243 241 240 239 238 239 238 236 238 239 238 239 240 239 240
252 252 252 253 254 256 259 258 256 253 252 252 253 253 253 252 252 252 254 254 253 253 252 249 247 245 245 245 244 243 244 245 245 244 244 242 241 239 239 240 241 241 240 241 241 241 243 243 243
254 254 253 254 256 257 259 258 255 253 253 253 254 254 254 252 251 251 253 254 253 252 252 250 247 246 246 247 246 245 244 245 245 244 244 244 241 240 240 240 241 242 243 244 243 242 244 245 245
254 255 255 255 257 258 258 258 256 254 254 254 255 255 254 253 251 251 251 251 252 252 252 250 248 247 246 246 246 246 244 244 244 244 244 243 242 241 241 241 242 243 244 245 245 243 244 246 247
256 256 256 256 257 259 258 257 257 256 255 255 255 255 255 254 252 251 251 251 251 251 252 250 248 248 247 247 247 246 245 244 244 244 244 243 242 241 241 241 241 243 244 245 247 245 245 248 249
257 256 256 257 257 258 258 257 256 256 256 257 257 256 255 254 252 251 251 251 250 250 250 249 248 248 247 247 247 246 244 244 243 243 242 242 241 241 241 241 240 243 244 244 245 245 246 247 248
258 258 258 257 258 259 258 257 256 256 257 257 257 257 255 253 252 251 250 249 249 249 248 247 246 245 245 245 245 245 245 244 242 242 240 240 242 241 242 240 240 241 243 243 243 244 245 246 249
258 259 259 260 260 259 258 257 256 257 257 258 258 258 255 252 252 251 249 248 247 247 246 245 245 244 242 243 243 244 244 243 241 239 238 238 240 242 241 239 239 241 242 244 243 243 245 247 250
259 260 260 260 260 259 259 258 257 257 257 259 259 257 255 253 252 251 249 247 246 245 245 243 243 243 242 242 243 243 242 241 239 236 235 236 238 239 240 239 239 240 241 242 243 244 246 248 250
260 261 260 260 259 259 259 259 258 258 258 260 259 256 255 254 253 251 248 245 244 243 242 240 241 242 242 242 242 241 240 238 237 235 234 235 236 237 239 241 239 240 241 241 242 243 247 248 251
260 260 260 259 258 258 258 259 259 258 259 258 257 256 255 253 251 248 246 244 243 242 242 241 242 243 242 242 240 237 236 236 235 234 233 235 235 237 239 241 241 241 240 241 243 243 247 252 253
259 258 258 257 258 258 258 258 258 258 257 256 256 255 252 251 249 247 245 242 241 241 240 239 241 242 242 240 236 233 233 233 233 233 233 233 234 237 239 241 242 241 240 241 243 245 248 250 254
258 257 256 257 257 257 257 256 257 257 255 255 255 253 250 248 246 246 245 242 240 240 240 240 241 242 240 238 235 233 231 230 231 231 232 232 235 238 239 241 241 241 240 240 243 246 248 251 254
257 256 256 257 257 257 257 255 255 255 254 254 253 251 248 246 246 246 245 243 241 240 239 240 240 239 239 236 233 233 231 229 230 232 232 231 234 237 239 240 241 240 240 241 243 245 248 250 253
256 256 256 256 256 256 256 255 254 253 253 252 251 249 247 246 246 245 243 241 238 237 238 239 239 239 237 235 233 231 230 229 230 230 231 232 234 237 240 240 240 240 242 242 243 246 249 252 255
255 257 257 256 256 256 256 254 251 252 252 250 248 247 247 246 245 244 242 240 238 237 238 238 237 236 234 233 232 231 228 229 229 229 230 231 235 237 239 240 239 238 240 242 244 246 249 252 255
257 258 258 257 256 255 254 253 250 250 250 248 245 244 246 246 244 242 240 240 240 240 239 238 236 235 234 234 233 231 228 228 229 230 230 232 236 236 237 240 240 239 241 242 245 248 249 251 254
256 256 257 258 257 255 253 252 249 247 249 246 243 242 243 244 242 242 242 241 241 241 241 239 237 235 233 235 234 232 230 230 230 230 232 233 236 237 239 242 241 239 242 243 246 248 250 251 255
254 255 256 256 256 255 253 251 248 246 246 243 241 241 241 242 241 241 241 241 241 241 243 242 240 237 234 234 234 233 233 232 231 230 231 234 237 238 239 241 242 241 243 245 247 248 250 253 255
252 254 254 255 254 254 255 250 245 244 244 242 240 240 240 240 239 240 241 240 241 242 243 242 239 237 234 234 234 234 233 232 230 230 234 237 239 240 241 241 243 244 245 247 247 249 252 254 255
251 252 253 253 252 253 253 252 244 243 243 241 239 239 240 239 240 240 241 241 240 242 243 242 236 235 234 235 236 236 234 232 230 232 234 236 238 240 240 241 244 246 248 248 248 250 252 254 256
251 250 251 251 251 251 250 253 247 243 242 240 240 240 240 240 241 242 243 242 242 243 242 241 234 234 233 234 235 236 235 234 234 235 236 237 239 239 240 242 245 247 249 250 250 251 253 255 258
247 248 248 248 248 249 248 251 249 245 242 239 239 240 241 241 242 243 243 242 242 241 242 240 235 233 232 232 236 238 237 235 234 236 238 239 240 241 242 243 246 247 250 253 253 254 255 257 259
242 244 245 246 246 248 247 249 250 246 242 239 238 239 240 241 242 243 243 243 242 243 243 241 236 233 234 233 235 238 238 236 235 238 240 238 240 242 243 243 246 248 252 254 256 257 258 259 261
241 242 243 246 248 248 248 250 249 245 242 240 239 238 240 241 243 243 243 243 242 242 242 240 238 235 234 235 235 238 239 239 239 240 241 240 241 243 246 246 248 251 254 256 258 260 260 261 262
240 239 241 245 248 249 249 250 247 244 241 240 239 239 241 241 243 242 242 242 240 241 241 239 236 235 237 238 238 238 239 240 241 242 243 243 245 248 249 250 252 255 257 259 261 262 261 262 263
239 239 240 242 245 248 250 250 247 243 241 241 240 240 241 242 243 241 241 240 239 239 238 238 237 237 237 239 239 239 240 239 239 243 246 246 247 248 252 254 255 257 259 260 262 262 262 263 264
236 235 238 241 243 246 249 249 247 246 244 243 242 241 241 242 243 242 241 240 239 239 238 238 238 238 238 239 239 239 240 240 242 245 247 248 249 250 253 254 256 258 259 260 262 263 264 265 266
236 237 237 238 240 243 247 249 247 247 244 243 242 241 241 241 241 240 240 239 238 238 239 239 240 240 240 239 238 239 240 242 245 246 248 249 252 254 254 255 257 259 260 261 263 264 265 266 267
Height
5826 5827 5829 5830 5831 5830 5831 5834 5836 5837 5837 5837 5838 5838 5839 5841 5843 5845 5845 5844 5846 5847 5848 5849 5850 5851 5852 5853 5854 5855 5856 5857 5858 5859 5860 5861 5862 5863 5864 5865 5865 5866 5866 5866 5867 5867 5868 5868 5868
5822 5823 5824 5825 5825 5825 5827 5829 5831 5832 5832 5832 5832 5833 5834 5835 5837 5839 5840 5840 5841 5843 5844 5845 5846 5847 5848 5849 5851 5852 5853 5854 5855 5856 5858 5859 5860 5861 5862 5863 5863 5864 5864 5865 5865 5866 5866 5867 5867
5817 5818 5819 5819 5819 5821 5823 5825 5826 5826 5826 5826 5827 5828 5829 5830 5832 5833 5835 5836 5837 5838 5839 5841 5842 5843 5844 5846 5847 5848 5849 5851 5852 5853 5855 5856 5857 5858 5860 5860 5861 5862 5862 5863 5863 5864 5864 5865 5865
5812 5813 5814 5814 5814 5816 5817 5819 5819 5819 5820 5820 5821 5822 5823 5825 5826 5828 5829 5830 5832 5833 5834 5836 5837 5838 5840 5841 5842 5844 5845 5847 5848 5850 5851 5853 5854 5855 5857 5858 5859 5860 5860 5861 5861 5862 5863 5863 5864
5806 5807 5808 5808 5809 5810 5811 5812 5812 5813 5814 5814 5815 5816 5817 5818 5820 5821 5823 5824 5826 5827 5828 5830 5832 5833 5835 5836 5838 5839 5841 5842 5844 5846 5847 5849 5851 5852 5853 5854 5855 5857 5857 5858 5859 5860 5860 5861 5861
5800 5801 5801 5802 5803 5804 5805 5805 5805 5805 5806 5807 5808 5809 5810 5811 5813 5815 5816 5818 5819 5820 5822 5824 5825 5827 5829 5831 5832 5834 5836 5838 5840 5842 5843 5845 5846 5848 5849 5850 5852 5853 5854 5855 5856 5857 5857 5858 5859
5794 5794 5794 5796 5796 5797 5798 5797 5798 5799 5799 5800 5801 5802 5803 5804 5806 5808 5809 5811 5812 5813 5815 5817 5819 5821 5823 5825 5827 5829 5831 5833 5835 5837 5839 5841 5842 5844 5845 5847 5848 5849 5850 5852 5853 5854 5855 5855 5856
5785 5787 5787 5788 5789 5790 5790 5790 5791 5791 5792 5792 5793 5794 5795 5797 5798 5800 5801 5802 5804 5806 5807 5809 5811 5814 5816 5818 5821 5823 5825 5827 5829 5832 5834 5836 5838 5840 5841 5843 5844 5846 5847 5848 5849 5851 5852 5852 5853
5778 5780 5780 5782 5782 5782 5782 5782 5783 5783 5784 5784 5784 5785 5787 5788 5789 5791 5792 5794 5795 5798 5799 5801 5803 5806 5809 5811 5814 5817 5819 5821 5823 5826 5829 5831 5833 5835 5837 5839 5840 5842 5843 5845 5846 5847 5848 5849 5850
5769 5771 5774 5774 5774 5774 5773 5774 5774 5775 5776 5776 5776 5777 5777 5779 5780 5782 5783 5785 5787 5789 5791 5793 5796 5798 5801 5804 5807 5809 5812 5814 5817 5820 5824 5826 5829 5831 5832 5834 5836 5838 5839 5841 5842 5844 5844 5845 5846
5761 5763 5765 5765 5765 5765 5765 5766 5766 5767 5768 5768 5768 5769 5770 5771 5772 5774 5775 5777 5779 5782 5784 5786 5788 5791 5794 5797 5799 5802 5805 5808 5811 5814 5818 5821 5823 5826 5828 5830 5832 5833 5835 5837 5838 5839 5841 5841 5842
5753 5755 5755 5756 5755 5756 5757 5757 5758 5759 5760 5760 5760 5761 5762 5763 5765 5767 5768 5770 5772 5775 5777 5779 5781 5784 5786 5789 5791 5794 5797 5801 5805 5808 5812 5815 5818 5821 5823 5825 5827 5829 5831 5832 5834 5835 5836 5837 5838
5743 5745 5745 5746 5746 5747 5748 5749 5749 5751 5751 5751 5752 5753 5754 5756 5758 5759 5761 5763 5765 5768 5769 5772 5774 5776 5778 5780 5783 5786 5790 5794 5798 5802 5805 5809 5812 5815 5817 5819 5822 5824 5826 5828 5830 5831 5832 5833 5834
5735 5735 5736 5737 5737 5738 5738 5740 5741 5744 5743 5743 5744 5745 5747 5749 5750 5752 5755 5757 5758 5760 5762 5764 5766 5768 5770 5772 5775 5779 5783 5787 5791 5795 5799 5802 5805 5808 5811 5813 5816 5818 5820 5822 5824 5826 5827 5828 5829
5725 5726 5727 5728 5728 5729 5729 5732 5734 5735 5734 5735 5736 5738 5740 5741 5743 5745 5748 5750 5751 5753 5755 5757 5758 5760 5762 5765 5768 5771 5775 5780 5784 5788 5792 5795 5799 5802 5804 5807 5810 5812 5814 5817 5819 5820 5822 5823 5824
5715 5716 5718 5721 5720 5720 5721 5724 5727 5726 5726 5727 5729 5730 5732 5734 5736 5738 5740 5742 5744 5746 5748 5749 5751 5753 5755 5757 5761 5764 5769 5773 5777 5782 5785 5789 5793 5795 5798 5801 5803 5806 5808 5811 5813 5815 5816 5818 5818
5705 5707 5709 5712 5711 5711 5711 5716 5719 5717 5717 5719 5721 5723 5724 5727 5729 5731 5733 5736 5738 5740 5741 5743 5744 5746 5748 5751 5754 5758 5762 5766 5771 5775 5779 5782 5786 5789 5792 5795 5797 5799 5802 5804 5807 5809 5810 5812 5813
5698 5698 5700 5702 5702 5702 5703 5707 5709 5708 5709 5711 5713 5715 5717 5720 5723 5725 5726 5729 5731 5733 5735 5736 5737 5739 5741 5744 5747 5751 5755 5759 5764 5768 5772 5776 5779 5783 5786 5788 5791 5793 5795 5798 5800 5802 5804 5805 5807
5687 5688 5690 5692 5692 5692 5694 5697 5700 5700 5700 5703 5706 5708 5710 5713 5715 5717 5720 5722 5724 5726 5728 5730 5732 5734 5736 5739 5742 5745 5749 5753 5758 5762 5766 5769 5773 5776 5779 5782 5784 5787 5789 5792 5794 5796 5797 5799 5800
5675 5677 5680 5682 5683 5683 5684 5687 5690 5692 5693 5696 5698 5701 5703 5706 5708 5710 5712 5715 5717 5720 5722 5724 5726 5728 5730 5733 5736 5739 5743 5747 5752 5756 5759 5762 5766 5769 5772 5775 5778 5780 5783 5785 5787 5789 5791 5792 5794
5665 5668 5671 5672 5673 5673 5674 5677 5682 5684 5686 5688 5691 5694 5696 5698 5701 5703 5705 5708 5711 5713 5715 5717 5719 5722 5724 5727 5729 5733 5737 5741 5745 5749 5752 5756 5759 5762 5765 5768 5771 5774 5776 5778 5780 5782 5784 5785 5786
5655 5660 5661 5661 5662 5663 5665 5666 5674 5676 5678 5681 5684 5687 5689 5692 5694 5696 5698 5701 5704 5706 5708 5710 5713 5715 5718 5720 5724 5727 5731 5735 5739 5743 5747 5750 5753 5756 5759 5762 5765 5767 5769 5771 5773 5774 5776 5777 5779
5646 5649 5650 5651 5652 5653 5656 5657 5664 5668 5671 5674 5677 5680 5682 5685 5687 5689 5691 5694 5697 5699 5701 5704 5706 5709 5712 5715 5718 5722 5726 5729 5733 5736 5740 5743 5746 5749 5752 5755 5757 5760 5762 5763 5765 5767 5768 5770 5771
5634 5637 5638 5639 5640 5641 5648 5649 5654 5661 5665 5667 5670 5672 5674 5677 5680 5682 5685 5687 5690 5692 5694 5697 5699 5703 5706 5709 5712 5716 5719 5723 5727 5730 5733 5736 5739 5742 5745 5748 5750 5752 5754 5756 5757 5759 5760 5761 5762
5621 5625 5627 5627 5628 5632 5640 5639 5645 5653 5656 5659 5662 5664 5667 5670 5672 5675 5677 5680 5683 5685 5687 5690 5692 5696 5699 5702 5706 5710 5713 5716 5720 5723 5726 5729 5732 5735 5737 5740 5742 5745 5746 5748 5749 5750 5752 5753 5753
5610 5613 5617 5619 5621 5626 5628 5629 5639 5644 5647 5650 5653 5656 5659 5662 5665 5667 5670 5672 5675 5678 5680 5683 5686 5689 5693 5696 5699 5703 5706 5710 5713 5716 5719 5722 5725 5727 5730 5732 5734 5736 5738 5739 5740 5741 5742 5743 5744
5599 5602 5608 5610 5612 5615 5617 5622 5629 5633 5637 5641 5645 5648 5651 5654 5657 5660 5662 5665 5668 5671 5673 5676 5679 5682 5686 5689 5692 5695 5699 5703 5706 5709 5712 5715 5717 5719 5721 5723 5725 5727 5728 5730 5731 5732 5733 5734 5734
5589 5594 5596 5599 5601 5604 5608 5612 5619 5624 5629 5633 5637 5640 5643 5646 5649 5652 5654 5657 5660 5663 5666 5668 5672 5675 5678 5681 5683 5687 5691 5694 5698 5701 5704 5706 5709 5711 5712 5714 5716 5717 5719 5720 5721 5722 5722 5723 5723
5579 5582 5586 5589 5593 5596 5599 5606 5611 5615 5620 5624 5628 5632 5635 5638 5641 5644 5646 5649 5652 5655 5658 5661 5665 5668 5670 5673 5676 5679 5682 5686 5689 5692 5695 5697 5699 5701 5703 5705 5706 5707 5709 5710 5710 5711 5711 5712 5712
5568 5572 5577 5581 5584 5588 5591 5599 5603 5607 5611 5615 5619 5622 5625 5628 5631 5635 5638 5641 5644 5647 5651 5654 5657 5660 5663 5665 5668 5670 5674 5677 5680 5683 5686 5688 5690 5692 5694 5695 5696 5697 5698 5699 5699 5700 5700 5700 5700